Location: Coll
(42.4728°N, 0.7714°E)
Time: 11:41:27
(UTC+00:00)

Cosmos 2344 - Pass Details

Date: 23 October 2020
Orbit: 1246 x 2997 km, 63.3° (Epoch: 30 November)

Event Time Altitude Azimuth Distance (km) Brightness Sun altitude
Exits shadow 05:35:17 10° 269° (W) 3,223 5.0 -8.9°
Reaches altitude 10° 05:35:18 10° 269° (W) 3,218 5.0 -8.9°
Maximum altitude 05:41:42 30° 329° (NNW) 2,161 4.5 -7.7°
Drops below altitude 10° 05:48:50 10° 29° (NNE) 3,594 6.2 -6.4°
Sets 05:52:37 0° 40° (NE) 4,786 7.0 -5.7°
